• în România
  • Lista ţărilor
  • Pe 7 zile
  • Temperatura apei
  • Hartă satelitară
  • Meteo pe hartă
  • Widget-uri
  • user-avatar
    Intrare

    Meteo pe oră la Jablanac

    Astăzi, 20 Octombrie, Vineri

    Timp Temperatura Precipitaţii Vânt Presiune Umiditate
    00:00 +14°C° 0 mm 1 m/s 758 mmHg 73%
    01:00 +15°C° 0 mm 1 m/s 758 mmHg 69%
    02:00 +14°C° 0 mm 1 m/s 758 mmHg 71%
    03:00 +14°C° 0 mm 1 m/s 758 mmHg 73%
    04:00 +14°C° 0 mm 1 m/s 758 mmHg 75%
    05:00 +14°C° 0 mm 1 m/s 758 mmHg 77%
    06:00 +14°C° 0 mm 1 m/s 758 mmHg 79%
    07:00 +14°C° 0 mm 1 m/s 758 mmHg 81%
    08:00 +16°C° 0 mm 1 m/s 758 mmHg 75%
    09:00 +19°C° 0 mm 2 m/s 759 mmHg 69%
    10:00 +21°C° 0 mm 2 m/s 759 mmHg 63%
    11:00 +21°C° 0 mm 2 m/s 759 mmHg 62%
    12:00 +23°C° 0 mm 2 m/s 758 mmHg 61%
    13:00 +23°C° 0 mm 2 m/s 758 mmHg 60%
    14:00 +21°C° 0 mm 2 m/s 758 mmHg 64%
    15:00 +21°C° 0 mm 2 m/s 758 mmHg 68%
    16:00 +21°C° 0 mm 1 m/s 758 mmHg 72%
    17:00 +19°C° 0 mm 1 m/s 758 mmHg 79%
    18:00 +18°C° 0 mm 1 m/s 759 mmHg 86%
    19:00 +16°C° 0 mm 1 m/s 759 mmHg 93%
    20:00 +15°C° 0 mm 1 m/s 759 mmHg 93%
    21:00 +15°C° 0 mm 1 m/s 759 mmHg 93%
    22:00 +15°C° 0 mm 1 m/s 760 mmHg 93%
    23:00 +15°C° 0 mm 1 m/s 760 mmHg 93%

    Mâine, 21 Octombrie, Sâmbătă

    Timp Temperatura Precipitaţii Vânt Presiune Umiditate
    00:00 +14°C° 0 mm 1 m/s 760 mmHg 93%
    01:00 +14°C° 0 mm 1 m/s 760 mmHg 93%
    02:00 +14°C° 0 mm 1 m/s 760 mmHg 93%
    03:00 +14°C° 0 mm 1 m/s 759 mmHg 93%
    04:00 +14°C° 0 mm 1 m/s 759 mmHg 93%
    05:00 +14°C° 0 mm 1 m/s 759 mmHg 92%
    06:00 +14°C° 0 mm 1 m/s 760 mmHg 92%
    07:00 +14°C° 0 mm 1 m/s 760 mmHg 91%
    08:00 +18°C° 0 mm 1 m/s 760 mmHg 83%
    09:00 +20°C° 0 mm 1 m/s 760 mmHg 74%
    10:00 +22°C° 0 mm 1 m/s 760 mmHg 66%
    11:00 +21°C° 0 mm 2 m/s 759 mmHg 65%
    12:00 +23°C° 0 mm 2 m/s 759 mmHg 64%
    13:00 +23°C° 0 mm 2 m/s 759 mmHg 64%
    14:00 +22°C° 0 mm 1 m/s 758 mmHg 68%
    15:00 +22°C° 0 mm 1 m/s 758 mmHg 73%
    16:00 +21°C° 0 mm 1 m/s 758 mmHg 77%
    17:00 +20°C° 0 mm 1 m/s 758 mmHg 83%
    18:00 +18°C° 0 mm 1 m/s 758 mmHg 89%
    19:00 +16°C° 0 mm 1 m/s 758 mmHg 95%
    20:00 +16°C° 0 mm 1 m/s 758 mmHg 95%
    21:00 +16°C° 0 mm 1 m/s 758 mmHg 95%
    22:00 +16°C° 0 mm 1 m/s 758 mmHg 95%
    23:00 +16°C° 0 mm 1 m/s 758 mmHg 95%

    Poimâine, 22 Octombrie, Duminică

    Timp Temperatura Precipitaţii Vânt Presiune Umiditate
    00:00 +16°C° 0 mm 1 m/s 758 mmHg 95%
    01:00 +15°C° 0 mm 1 m/s 757 mmHg 95%
    02:00 +15°C° 0 mm 1 m/s 757 mmHg 95%
    03:00 +16°C° 0 mm 1 m/s 757 mmHg 96%
    04:00 +16°C° 0 mm 2 m/s 756 mmHg 96%
    05:00 +16°C° 0 mm 2 m/s 756 mmHg 96%
    06:00 +16°C° 0 mm 2 m/s 756 mmHg 95%
    07:00 +16°C° 0 mm 3 m/s 756 mmHg 95%
    08:00 +17°C° 0,3 mm 3 m/s 755 mmHg 91%
    09:00 +18°C° 0,3 mm 4 m/s 755 mmHg 87%
    10:00 +19°C° 0,3 mm 4 m/s 755 mmHg 82%
    11:00 +19°C° 0,9 mm 5 m/s 754 mmHg 83%
    12:00 +20°C° 0,9 mm 5 m/s 754 mmHg 84%
    13:00 +20°C° 0,9 mm 5 m/s 753 mmHg 84%
    14:00 +19°C° 1 mm 5 m/s 753 mmHg 85%
    15:00 +19°C° 1 mm 5 m/s 752 mmHg 87%
    16:00 +19°C° 1 mm 5 m/s 752 mmHg 88%
    17:00 +18°C° 1,4 mm 4 m/s 752 mmHg 89%
    18:00 +17°C° 1,4 mm 4 m/s 752 mmHg 90%
    19:00 +15°C° 1,4 mm 4 m/s 753 mmHg 92%
    20:00 +14°C° 0,6 mm 4 m/s 753 mmHg 91%
    21:00 +13°C° 0,6 mm 4 m/s 753 mmHg 91%
    22:00 +12°C° 0,6 mm 5 m/s 753 mmHg 90%
    23:00 +12°C° 0,4 mm 5 m/s 753 mmHg 90%

    23 Octombrie, Luni

    Timp Temperatura Precipitaţii Vânt Presiune Umiditate
    00:00 +11°C° 0,4 mm 6 m/s 753 mmHg 90%
    01:00 +10°C° 0,4 mm 6 m/s 753 mmHg 89%
    02:00 +10°C° 0,6 mm 7 m/s 753 mmHg 89%
    03:00 +10°C° 0,6 mm 7 m/s 753 mmHg 89%
    04:00 +9°C° 0,6 mm 8 m/s 753 mmHg 88%
    05:00 +9°C° 0,7 mm 8 m/s 753 mmHg 87%
    06:00 +8°C° 0,7 mm 9 m/s 753 mmHg 87%
    07:00 +8°C° 0,7 mm 9 m/s 754 mmHg 86%
    08:00 +9°C° 0,2 mm 8 m/s 754 mmHg 84%
    09:00 +10°C° 0,2 mm 8 m/s 754 mmHg 81%
    10:00 +10°C° 0,2 mm 7 m/s 755 mmHg 79%
    11:00 +11°C° 0 mm 7 m/s 755 mmHg 74%
    12:00 +13°C° 0 mm 6 m/s 755 mmHg 69%
    13:00 +14°C° 0 mm 6 m/s 755 mmHg 63%
    14:00 +14°C° 0 mm 5 m/s 755 mmHg 65%
    15:00 +13°C° 0 mm 5 m/s 755 mmHg 67%
    16:00 +13°C° 0 mm 4 m/s 755 mmHg 69%
    17:00 +12°C° 0 mm 4 m/s 755 mmHg 74%
    18:00 +11°C° 0 mm 3 m/s 756 mmHg 78%
    19:00 +10°C° 0 mm 3 m/s 756 mmHg 83%
    20:00 +10°C° 0 mm 3 m/s 756 mmHg 83%
    21:00 +9°C° 0 mm 2 m/s 756 mmHg 83%
    22:00 +9°C° 0 mm 2 m/s 757 mmHg 82%
    23:00 +9°C° 0 mm 2 m/s 757 mmHg 82%

    24 Octombrie, Marţi

    Timp Temperatura Precipitaţii Vânt Presiune Umiditate
    00:00 +9°C° 0 mm 2 m/s 757 mmHg 81%
    01:00 +9°C° 0 mm 2 m/s 757 mmHg 81%
    02:00 +9°C° 0 mm 2 m/s 757 mmHg 80%
    03:00 +9°C° 0 mm 2 m/s 756 mmHg 79%
    04:00 +9°C° 0 mm 2 m/s 756 mmHg 78%
    05:00 +9°C° 0 mm 2 m/s 757 mmHg 76%
    06:00 +9°C° 0 mm 2 m/s 757 mmHg 75%
    07:00 +9°C° 0 mm 2 m/s 757 mmHg 74%
    08:00 +12°C° 0 mm 2 m/s 757 mmHg 67%
    09:00 +14°C° 0 mm 2 m/s 757 mmHg 60%
    10:00 +16°C° 0 mm 3 m/s 757 mmHg 52%
    11:00 +17°C° 0 mm 3 m/s 757 mmHg 52%
    12:00 +17°C° 0 mm 4 m/s 757 mmHg 52%
    13:00 +16°C° 0 mm 5 m/s 757 mmHg 52%
    14:00 +16°C° 0 mm 5 m/s 757 mmHg 56%
    15:00 +15°C° 0 mm 5 m/s 757 mmHg 60%
    16:00 +15°C° 0 mm 5 m/s 757 mmHg 64%
    17:00 +14°C° 0 mm 5 m/s 758 mmHg 67%
    18:00 +13°C° 0 mm 6 m/s 759 mmHg 70%
    19:00 +11°C° 0 mm 6 m/s 759 mmHg 74%
    20:00 +11°C° 0 mm 7 m/s 760 mmHg 74%
    21:00 +11°C° 0 mm 7 m/s 760 mmHg 75%
    22:00 +10°C° 0 mm 8 m/s 761 mmHg 76%
    23:00 +10°C° 0 mm 8 m/s 761 mmHg 78%

    25 Octombrie, Miercuri

    Timp Temperatura Precipitaţii Vânt Presiune Umiditate
    00:00 +10°C° 0 mm 8 m/s 761 mmHg 80%
    01:00 +10°C° 0 mm 8 m/s 761 mmHg 81%
    02:00 +9°C° 0 mm 8 m/s 761 mmHg 82%
    03:00 +9°C° 0 mm 8 m/s 761 mmHg 83%
    04:00 +9°C° 0 mm 7 m/s 762 mmHg 83%
    05:00 +9°C° 0 mm 7 m/s 762 mmHg 84%
    06:00 +9°C° 0 mm 7 m/s 762 mmHg 85%
    07:00 +8°C° 0 mm 7 m/s 762 mmHg 85%
    08:00 +10°C° 0 mm 6 m/s 763 mmHg 79%
    09:00 +11°C° 0 mm 6 m/s 763 mmHg 73%
    10:00 +13°C° 0 mm 6 m/s 763 mmHg 67%
    11:00 +14°C° 0 mm 6 m/s 763 mmHg 65%
    12:00 +15°C° 0 mm 6 m/s 763 mmHg 62%
    13:00 +16°C° 0 mm 6 m/s 763 mmHg 59%
    14:00 +15°C° 0 mm 6 m/s 763 mmHg 62%
    15:00 +15°C° 0 mm 6 m/s 763 mmHg 65%
    16:00 +15°C° 0 mm 6 m/s 763 mmHg 67%
    17:00 +13°C° 0 mm 6 m/s 763 mmHg 71%
    18:00 +12°C° 0 mm 5 m/s 763 mmHg 75%
    19:00 +10°C° 0 mm 5 m/s 764 mmHg 79%
    20:00 +10°C° 0 mm 5 m/s 764 mmHg 79%
    21:00 +10°C° 0 mm 5 m/s 764 mmHg 78%
    22:00 +10°C° 0 mm 5 m/s 765 mmHg 78%
    23:00 +10°C° 0 mm 4 m/s 765 mmHg 78%
    Arată mai mult